Starlink 36173

operational
NORAD ID: 67210 Int'l Des: 2025-304 Owner: SPXS Country: US Constellation: starlink
LEOCIRCULAR

About Starlink 36173

Description loading...

Live Position

Loading 3D Globe...

Upcoming Passes

Altitude History

Altitude vs Time

uPlot chart will show altitude changes over time

Two-Line Element Set

1 67210C 25304U 25352.76715278 .00710530 00000+0 97271-3 0 3527
2 67210 69.9977 31.2726 0009279 253.3896 234.8384 16.05159523 19
Epoch: Dec 18, 2025 • Age: 65 hours

Current Status

Altitude 265.6 km
Velocity 7.75 km/s
Sub-Earth Point 57.09°N, 168.31°W
Launch Date Dec 17, 2025
Age 3 days
Type internet

Technical Details

Classification Payload
Mass 575.00 kg
Dry Mass 530.00 kg
Total Mass 575.00 kg
Length 0.30 m
Diameter 4.10 m
Span 29.00 m
Shape Box + pan
Manufacturer SPXS
Bus Type Starlink V2MO
Phase Status In Orbit
Owner/State SPXS/US

Large Constellations

Loading constellations...